[[{"header":{"parameterUnit":"m.s-1","parameterCategory":1,"la1":30.2991,"la2":30.254,"lo1":-89.0895,"lo2":-89.0444,"dy":0.0017,"dx":0.0017,"nx":28,"ny":28,"refTime":"2025-06-07T03:00:00:Z","depth":0,"parameterNumber":2,"parameterNumberName":"U-component_of_WINDS"},"data":[0,0,0,0,0,0,0,0,0,0,0,0,0,0,0,0,0,0,0,0,0,0,0,0,0,0,0,0,0,0,0,0,0,0,0,0,0,0,0,0,0,0,0,0,0,0,0,0,0,0,0,0,0,0,0,0,0,0,3.7734,3.7735,0,3.7888,3.789,3.7892,3.7875,3.7873,3.787,3.7868,3.803,3.8036,3.8043,0,0,0,0,0,0,0,0,0,0,0,0,0,3.7427,3.7432,3.7734,3.7735,3.7737,3.7888,3.789,3.7892,3.7876,3.7873,3.787,3.7867,3.8028,3.8035,3.8043,0,0,0,0,0,0,0,0,0,0,0,0,0,3.7569,3.7434,3.7733,3.7747,3.775,3.7887,3.789,3.7893,3.7876,3.7872,3.7869,3.7865,3.8025,3.8035,3.8044,3.8179,0,0,3.8075,3.8079,0,0,0,0,0,0,0,0,3.7561,3.758,3.7743,3.7746,3.775,3.7858,3.7841,3.7989,3.7877,3.7828,3.7868,3.7864,3.7976,3.799,3.8027,3.8187,3.8194,3.8076,3.8082,3.8086,3.8089,0,0,0,0,0,0,0,3.7551,3.7573,3.7795,3.7746,3.775,3.7747,3.7763,3.7869,3.7921,3.7832,3.7831,3.785,3.7977,3.8017,3.8031,3.8196,3.8075,3.8084,3.809,3.8094,3.8473,3.8477,0,0,0,0,0,0,3.7537,3.7565,3.779,3.7799,3.7644,3.7755,3.7773,3.7827,3.792,3.793,3.7853,3.7848,3.8002,3.8019,3.8036,3.8199,3.8086,3.8095,3.8101,3.8469,3.8474,3.8479,0,0,0,0,0,0,3.7531,3.7557,3.7784,3.7682,3.7711,3.7764,3.7825,3.7832,3.7872,3.7935,3.7945,3.7884,3.8,3.8022,3.8143,3.8204,3.8099,3.8108,3.8464,3.8471,3.8476,3.8526,0,0,0,0,0,0,3.7522,3.7555,3.7606,3.7683,3.7716,3.7887,3.7829,3.7838,3.7889,3.7885,3.7967,3.7977,3.7999,3.8129,3.8153,3.8216,3.8116,3.8459,3.8467,3.8474,3.8519,3.8533,3.8545,0,0,0,0,0,3.7511,3.7615,3.7609,3.7636,3.7781,3.7891,3.791,3.7931,3.7894,3.7946,3.7986,3.7975,3.8194,3.8141,3.8169,3.8235,3.8455,3.8465,3.8474,3.8513,3.853,3.8545,0,0,0,0,0,0,3.7545,3.7625,3.7619,3.7751,3.7814,3.7888,3.7954,3.7949,3.8025,3.8018,3.8043,3.8061,3.8183,3.8222,3.8161,3.837,3.832,3.8335,3.834,3.8357,3.837,3.8357,3.8124,0,0,0,0,0,3.7568,3.7649,3.7716,3.7826,3.7857,3.79,3.7949,3.796,3.8027,3.8054,3.8103,3.8169,3.8252,3.8307,3.8388,3.8525,3.8542,3.8585,3.8597,3.8608,3.862,3.8695,3.8714,3.8509,3.8509,3.8509,0,0,3.7616,3.767,3.772,3.7834,3.7884,3.7968,3.7923,3.8015,3.8078,3.8068,3.8184,3.8223,3.8298,3.8427,3.8487,3.8463,3.8681,3.862,3.8627,3.8635,3.8706,3.8726,3.8743,3.8515,3.8514,3.8513,0,0,3.7746,3.7795,3.7892,3.7942,3.8018,3.8046,3.8069,3.8144,3.8168,3.8285,3.8279,3.8356,3.8499,3.8553,3.8599,3.8749,3.8741,3.8775,3.8842,3.8914,3.893,3.8945,3.8997,3.9016,3.8787,3.8787,3.8787,0,3.7796,3.7922,3.7942,3.8034,3.8084,3.8078,3.8176,3.8225,3.8324,3.8359,3.8331,3.851,3.8561,3.8702,3.8738,3.8776,3.8803,3.8765,3.8926,3.8941,3.8955,3.9005,3.9025,3.8791,3.8791,3.879,3.879,0,3.798,3.8067,3.8136,3.823,3.8288,3.8383,3.8418,3.8474,3.8481,3.8511,3.8631,3.8691,3.8783,3.8817,3.8825,3.896,3.8943,3.8921,3.887,3.8977,3.9025,3.9044,3.8796,3.8795,3.8794,3.8793,0,0,3.8136,3.8238,3.8263,3.8305,3.8388,3.8457,3.8551,3.864,3.8687,3.8756,3.8835,3.8957,3.8936,3.8989,3.9003,3.9066,3.918,3.9036,3.9038,3.906,3.933,3.9345,3.9367,3.9175,3.9179,3.9182,3.9324,0,3.8273,3.8438,3.8459,3.8606,3.8687,3.8683,3.8765,3.8825,3.8857,3.893,3.8966,3.9051,3.9018,3.9049,3.9112,3.9152,3.9234,3.9143,3.9249,3.9253,3.9229,3.9392,3.9409,3.954,3.9342,3.9346,3.9348,0,3.8455,3.8527,3.8682,3.8752,3.8787,3.886,3.8943,3.9013,3.9082,3.91,3.9158,3.9163,3.9262,3.9208,3.9343,3.9281,3.9326,3.9352,3.9358,3.9368,3.9306,3.9405,3.9582,3.9601,3.9378,3.9375,3.9373,0,3.8551,3.8687,3.8797,3.8833,3.8919,3.897,3.9009,3.9073,3.9125,3.9197,3.9231,3.9315,3.936,3.9425,3.9453,3.9412,3.9587,3.9536,3.9605,3.9604,3.9641,3.9638,3.9826,3.9673,3.9672,3.9672,3.9672,0,3.8702,3.8797,3.8841,3.8908,3.9014,3.9037,3.9142,3.9179,3.9236,3.9311,3.9313,3.9383,3.9417,3.9493,3.9516,3.9624,3.9645,3.9662,3.9667,3.9662,3.9659,3.969,3.9682,3.9677,3.9676,3.9675,3.9674,0,3.8827,3.886,3.8979,3.905,3.907,3.9145,3.9206,3.9272,3.9302,3.9397,3.9421,3.9469,3.9559,3.9593,3.9703,3.9718,3.9842,3.9841,3.9819,3.982,3.9886,3.9879,4.01,4.013,3.9958,3.9959,3.9961,0,3.892,3.8992,3.907,3.912,3.9159,3.924,3.9292,3.9318,3.9372,3.9455,3.9511,3.9599,3.9671,3.9814,3.986,3.9943,3.9943,4.0015,3.9955,3.9947,3.9942,3.9937,3.9944,4.0025,4.0027,4.0028,4.0029,0,3.9081,3.9094,3.9168,3.9249,3.931,3.9375,3.9438,3.9479,3.9515,3.9576,3.9666,3.9722,3.9833,3.9921,4.0007,4.0047,4.0045,4.0048,4.0068,4.0062,4.0046,4.0054,3.9847,4.0042,4.0041,4.004,4.0039,4.0039,3.9192,3.9256,3.932,3.9403,3.9453,3.9511,3.9576,3.9614,3.9689,3.978,3.9792,3.9888,3.9955,4.0069,4.0113,4.019,4.0171,4.0201,4.0208,4.0214,4.0218,4.0034,4.0206,4.0206,4.0205,4.0205,4.0205,0,3.9352,3.9393,3.9469,3.9556,3.9621,3.9612,3.9681,3.9736,3.9821,3.9882,3.9952,4.0056,4.0141,4.0193,4.0279,4.033,4.0331,4.0351,4.0347,4.0356,4.0231,4.0204,4.0349,4.0349,4.0349,4.0349,4.0349,4.0349,3.9443,3.9549,3.9569,3.9701,3.9741,3.9835,3.9875,3.9929,3.9978,4.0093,4.0163,4.0196,4.0254,4.0343,4.0421,4.0434,4.0465,4.0487,4.0498,4.038,4.0365,4.0351,4.0326,4.0494,4.0494,4.0617,4.0618,4.0619]},{"header":{"parameterUnit":"m.s-1","parameterCategory":1,"la1":30.2991,"la2":30.254,"lo1":-89.0895,"lo2":-89.0444,"dy":0.0017,"dx":0.0017,"nx":28,"ny":28,"refTime":"2025-06-07T03:00:00:Z","depth":0,"parameterNumber":3,"parameterNumberName":"V-component_of_WINDS"},"data":[0,0,0,0,0,0,0,0,0,0,0,0,0,0,0,0,0,0,0,0,0,0,0,0,0,0,0,0,0,0,0,0,0,0,0,0,0,0,0,0,0,0,0,0,0,0,0,0,0,0,0,0,0,0,0,0,0,0,1.6116,1.6116,0,1.6119,1.6119,1.6119,1.6084,1.6083,1.6082,1.6081,1.6085,1.6086,1.6087,0,0,0,0,0,0,0,0,0,0,0,0,0,1.6079,1.608,1.6116,1.6116,1.6116,1.6119,1.6119,1.6119,1.6084,1.6083,1.6081,1.608,1.6085,1.6086,1.6087,0,0,0,0,0,0,0,0,0,0,0,0,0,1.609,1.608,1.6116,1.6098,1.6097,1.6119,1.6119,1.6119,1.6084,1.6083,1.6081,1.608,1.6084,1.6086,1.6087,1.6127,0,0,1.6092,1.6093,0,0,0,0,0,0,0,0,1.6089,1.6091,1.6101,1.61,1.6098,1.6099,1.6108,1.6122,1.6084,1.6089,1.6081,1.6079,1.6091,1.6092,1.6096,1.6127,1.6127,1.6092,1.6093,1.6094,1.6094,0,0,0,0,0,0,0,1.6088,1.6091,1.6117,1.6101,1.6099,1.6091,1.6091,1.611,1.6098,1.6088,1.6086,1.6087,1.609,1.6095,1.6096,1.6127,1.6092,1.6094,1.6095,1.6095,1.6189,1.6191,0,0,0,0,0,0,1.609,1.609,1.6117,1.6117,1.609,1.6093,1.6092,1.61,1.6098,1.6096,1.6088,1.6085,1.6093,1.6094,1.6096,1.6141,1.6094,1.6095,1.6096,1.6188,1.619,1.6192,0,0,0,0,0,0,1.6089,1.6093,1.6117,1.6103,1.6105,1.6095,1.6104,1.6101,1.6106,1.6098,1.6095,1.6095,1.6092,1.6094,1.6119,1.6141,1.6096,1.6097,1.6186,1.6189,1.6191,1.6232,0,0,0,0,0,0,1.6088,1.6093,1.6107,1.6104,1.6106,1.614,1.6105,1.6102,1.6108,1.6105,1.6103,1.6102,1.6091,1.6117,1.6121,1.6142,1.6099,1.6184,1.6187,1.619,1.6229,1.6236,1.6242,0,0,0,0,0,1.6087,1.6119,1.6108,1.6112,1.6125,1.6141,1.6143,1.6129,1.611,1.6125,1.612,1.6102,1.6138,1.612,1.6124,1.6146,1.6183,1.6186,1.619,1.6226,1.6235,1.6242,0,0,0,0,0,0,1.6127,1.6119,1.6106,1.6138,1.6141,1.6135,1.6154,1.6138,1.6147,1.6143,1.6125,1.6125,1.6154,1.6152,1.6132,1.6183,1.6157,1.6161,1.6183,1.6191,1.6197,1.6197,1.61,0,0,0,0,0,1.6139,1.6153,1.6145,1.6174,1.6176,1.6165,1.6171,1.616,1.6162,1.6163,1.616,1.6163,1.6174,1.6183,1.6193,1.6228,1.6228,1.6246,1.6252,1.6257,1.6262,1.628,1.6288,1.6203,1.6203,1.6203,0,0,1.6165,1.6162,1.6172,1.6182,1.6183,1.6198,1.6166,1.6183,1.6194,1.6166,1.619,1.6187,1.6189,1.622,1.6233,1.6219,1.6285,1.6262,1.6266,1.6267,1.6284,1.6292,1.6299,1.6206,1.6205,1.6205,0,0,1.6219,1.6219,1.6242,1.6244,1.6245,1.6237,1.6242,1.6239,1.6236,1.626,1.6239,1.6251,1.6272,1.6274,1.6278,1.6333,1.6316,1.6336,1.637,1.6388,1.6394,1.64,1.6419,1.6427,1.6341,1.6341,1.6341,0,1.6251,1.6273,1.6257,1.6275,1.628,1.6255,1.6279,1.6281,1.6285,1.6289,1.6274,1.6299,1.6299,1.6329,1.6342,1.6346,1.6352,1.6337,1.6395,1.64,1.6406,1.6424,1.6431,1.6343,1.6343,1.6343,1.6342,0,1.6312,1.6327,1.6346,1.6351,1.6358,1.6379,1.6366,1.6375,1.6363,1.6357,1.6381,1.6379,1.6389,1.6395,1.6384,1.6424,1.6415,1.6398,1.6371,1.6416,1.6433,1.644,1.6347,1.6346,1.6345,1.6344,0,0,1.6392,1.6387,1.6394,1.6395,1.6394,1.6406,1.6426,1.6435,1.6443,1.6446,1.6463,1.648,1.6464,1.6468,1.6457,1.6473,1.6516,1.6453,1.6453,1.6465,1.6559,1.6572,1.6581,1.6505,1.6506,1.6507,1.6559,0,1.6445,1.6478,1.6464,1.6499,1.6513,1.6488,1.6506,1.6507,1.6501,1.6512,1.6506,1.6519,1.6496,1.6499,1.6513,1.6507,1.6534,1.6503,1.652,1.652,1.652,1.6589,1.6604,1.6653,1.6565,1.6566,1.6567,0,1.6512,1.6517,1.6554,1.6549,1.6555,1.657,1.6577,1.6588,1.6588,1.6583,1.6588,1.6573,1.6592,1.6565,1.6591,1.657,1.6576,1.6574,1.6575,1.6577,1.6547,1.6592,1.6668,1.6675,1.6577,1.6577,1.6576,0,1.6566,1.6583,1.6607,1.6609,1.6605,1.6616,1.6615,1.6614,1.662,1.6626,1.663,1.6638,1.6642,1.6649,1.6637,1.6618,1.6664,1.6636,1.6661,1.6661,1.6672,1.6671,1.6749,1.6675,1.6675,1.6675,1.6675,0,1.6627,1.665,1.6631,1.6646,1.6671,1.6654,1.6679,1.6675,1.6675,1.6688,1.6668,1.6681,1.6663,1.6675,1.6665,1.6688,1.669,1.6687,1.6684,1.6688,1.6689,1.6692,1.6688,1.6677,1.6677,1.6676,1.6676,0,1.6692,1.668,1.6705,1.6698,1.6697,1.6716,1.671,1.6724,1.6716,1.6734,1.6737,1.6725,1.6738,1.6726,1.6738,1.6731,1.6762,1.6754,1.6761,1.6759,1.6784,1.6782,1.6867,1.6877,1.6797,1.6798,1.6798,0,1.6732,1.6748,1.6744,1.6751,1.6751,1.6763,1.6769,1.6753,1.676,1.6761,1.6774,1.6785,1.6792,1.6813,1.6806,1.6815,1.6807,1.6836,1.6808,1.6812,1.6807,1.6806,1.6808,1.6842,1.6843,1.6844,1.6844,0,1.6803,1.6796,1.6805,1.6812,1.6819,1.6824,1.6827,1.6834,1.6818,1.6826,1.6838,1.6844,1.6856,1.6866,1.6873,1.6871,1.6855,1.6853,1.6859,1.6864,1.6868,1.6866,1.6777,1.6851,1.6851,1.685,1.685,1.6849,1.6856,1.687,1.6868,1.6879,1.6879,1.6883,1.6895,1.6889,1.6898,1.6906,1.6896,1.6911,1.6911,1.6918,1.6918,1.693,1.6917,1.6926,1.6928,1.6931,1.6934,1.6866,1.6931,1.693,1.693,1.693,1.693,0,1.6926,1.6924,1.6933,1.6938,1.6946,1.693,1.6932,1.694,1.6953,1.6954,1.6962,1.6976,1.6986,1.6979,1.6988,1.6998,1.6991,1.7001,1.7,1.7,1.6945,1.6939,1.7006,1.7006,1.7006,1.7006,1.7006,1.7006,1.6963,1.6985,1.6979,1.7001,1.6998,1.7012,1.7015,1.7018,1.7018,1.7034,1.7042,1.7038,1.7036,1.7044,1.7052,1.705,1.7054,1.7067,1.7062,1.7011,1.7004,1.6996,1.699,1.7068,1.7068,1.7116,1.7116,1.7116]}]]